Regional Weather Roundup
Issued by NWS Charleston, WV

Home | Current Version | Previous Version | Text Only | Print | Product List | Glossary Off
Versions: 1 2 3 4 5 6 7 8 9 10 11 12 13 14 15 16 17 18 19 20 21 22 23 24 25 26 27 28 29 30 31 32 33 34 35 36 37 38 39 40 41 42 43 44 45 46 47 48 49 50

578
ASUS41 KRLX 291710
RWRRLX
West Virginia Regional Weather Roundup
National Weather Service Charleston WV
100 PM EDT SUN MAY 29 2016

Note: "fair" indicates few or no clouds below 12,000 feet with no
significant weather and/or obstructions to visibility.

WVZ003-291800-
Northern Panhandle of West Virginia

CITY           SKY/WX    TMP DP  RH WIND       PRES   REMARKS
WHEELING         N/A     79  66  64 CALM      30.13S
$$

WVZ009-291800-
Northwest West Virginia

CITY           SKY/WX    TMP DP  RH WIND       PRES   REMARKS
PARKERSBURG      N/A     77  68  73 SE3       30.15R
$$

WVZ006-291800-
Western West Virginia

CITY           SKY/WX    TMP DP  RH WIND       PRES   REMARKS
HUNTINGTON       N/A     77  66  68 N7        30.13S
$$

WVZ015-291800-
West Central West Virginia

CITY           SKY/WX    TMP DP  RH WIND       PRES   REMARKS
CHARLESTON     CLOUDY    79  62  56 CALM      30.13S
$$

WVZ022-031-291800-
North Central West Virginia

CITY           SKY/WX    TMP DP  RH WIND       PRES   REMARKS
CLARKSBURG     CLOUDY    77  64  64 CALM      30.14S
MORGANTOWN       N/A     79  62  56 VRB6      30.15S
$$

WVZ025-035-042-045-291800-
Southern West Virginia

CITY           SKY/WX    TMP DP  RH WIND       PRES   REMARKS
BECKLEY        CLOUDY    71  58  63 E5        30.21R
LOGAN          PTSUNNY   75  63  64 CALM      30.16S
BLUEFIELD      CLOUDY    69  55  60 CALM      30.23R
LEWISBURG      LGT RAIN  69  56  63 CALM      30.21S
$$

WVZ047-291800-
Northern Mountains of West Virginia

CITY           SKY/WX    TMP DP  RH WIND       PRES   REMARKS
ELKINS         PTSUNNY   74  62  66 CALM      30.18F
$$

WVZ052-291800-
Eastern Panhandle of West Virginia

CITY           SKY/WX    TMP DP  RH WIND       PRES   REMARKS
MARTINSBURG      N/A     83  54  36 SE6       30.11F
PETERSBURG       N/A     78  69  73 CALM      30.13F
$$




USA.gov is the U.S. government's official web portal to all federal, state and local government web resources and services.